HULIANWANG DIGUI-33

导读

HULIANWANG DIGUI-33是中国于2025年6月5日发射的低轨互联网卫星,属于中国加速布局低轨卫星互联网星座布局的组成部分。该卫星运行于近地轨道,旨在依托低轨信号损耗小的优势,为全球提供高速稳定的卫星互联网通信服务,弥补地面网络覆盖盲区,支撑天地一体化网络建设,助力中国低轨卫星星座组网进程,推动卫星互联网商用发展。

基本信息
目录编号:
64286
目录名称:
HULIANWANG DIGUI-33
国际标识:
2025-121D
轨道中心:
EARTH
卫星名称:
HULIANWANG DIGUI-33
卫星全名:
HULIANWANG DIGUI-33
卫星状态:
在轨 (已飞行372 天)
发射日期:
2025-06-05 UTC
国别 :
中国 (CN)
星等 :
--
轨道信息
数据来源 国际轨道数据 AOE轨道数据
星历时间 2026-06-12T13:38:03+0800
14小时前
查看轨道信息
2026-06-08T23:00:00+0800
4天前
查看轨道信息
半长轴 7546.064km 7546.068km
偏心率 0.0001903 0.0001809
轨道倾角 86.501° 86.502°
近地点辐角 91.239° 85.460°
升交点赤经 15.286° 16.503°
平近点角 268.897° 353.587°
近地点 1166.49km 1166.565km
远地点 1169.364km 1169.297km
周期 108.728分钟 108.728分钟
每日圈数 13.244088 13.244077
详细信息
使用方式:
暂无
2D轨道图
3D轨道图
轨道高度分析图
轨道倾角分析图
轨道综合分析图
查看轨道综合分析图